Tracking 19903 objects as of 16-Oct-2019
HD Live streaming from Space Station
objects crossing your sky now

FENGYUN 1C DEB

Track FENGYUN 1C DEB now!
10-day predictions


NORAD ID: 35242
Int'l Code: 1999-025DRA
Perigee: 857.6 km
Apogee: 1,326.4 km
Inclination: 100.1 °
Period: 106.9 minutes
Semi major axis: 7462 km
RCS: 0.0022 m2 (small)
Launch date: May 10, 1999
Source: People's Republic of China (PRC)
Launch site: Taiyaun Space Center, China (TSC)

Note: This is SATELLITE DEBRIS
aabbcc
Your satellite tracking list
Your tracking list is empty




NASA's NSSDC Master Catalog

Two Line Element Set (TLE):
1 35242U 99025DRA 19286.97641517  .00000243  00000-0  35818-3 0  9994
2 35242 100.0991 295.0948 0314024 310.3633  77.0498 13.46582050564103
Source of the keplerian elements: AFSPC